| time (UTC) | temp F | wind direction | speed MPH | gust MPH | rain 1hr in | rain 24hr in | rain mn in | humidity % | barometer mb |
| 20260510191523 | 62 | 255 | 2.0 | 13.0 | 0.00 | 0.12 | 0.12 | 60 | 1013.7 |
| 20260510190012 | 62 | 236 | 2.0 | 10.0 | 0.00 | 0.12 | 0.12 | 68 | 1013.7 |
| 20260510184507 | 61 | 287 | 2.0 | 9.0 | 0.00 | 0.12 | 0.12 | 72 | 1013.8 |
| 20260510183004 | 60 | 287 | 3.0 | 9.0 | 0.00 | 0.12 | 0.12 | 71 | 1013.9 |
| 20260510181502 | 59 | 264 | 8.0 | 12.0 | 0.00 | 0.12 | 0.12 | 69 | 1013.9 |
| 20260510180109 | 59 | 266 | 4.0 | 9.0 | 0.00 | 0.12 | 0.12 | 74 | 1013.7 |
| 20260510174608 | 59 | 248 | 3.0 | 7.0 | 0.00 | 0.12 | 0.12 | 77 | 1013.7 |
| 20260510173101 | 59 | 248 | 4.0 | 9.0 | 0.00 | 0.12 | 0.12 | 78 | 1013.6 |
| 20260510171557 | 58 | 242 | 3.0 | 9.0 | 0.00 | 0.12 | 0.12 | 80 | 1013.6 |
| 20260510170111 | 58 | 257 | 2.0 | 6.0 | 0.00 | 0.12 | 0.12 | 84 | 1013.7 |
| 20260510164618 | 58 | 259 | 3.0 | 8.0 | 0.00 | 0.15 | 0.12 | 84 | 1013.8 |
| 20260510163101 | 57 | 290 | 2.0 | 8.0 | 0.00 | 0.15 | 0.12 | 85 | 1013.7 |
| 20260510161552 | 58 | 269 | 3.0 | 8.0 | 0.00 | 0.15 | 0.12 | 87 | 1013.6 |
| 20260510154603 | 57 | 275 | 2.0 | 5.0 | 0.00 | 0.18 | 0.12 | 87 | 1013.4 |
| 20260510153050 | 57 | 256 | 1.0 | 4.0 | 0.00 | 0.18 | 0.12 | 88 | 1013.5 |
| 20260510151548 | 57 | 285 | 1.0 | 8.0 | 0.00 | 0.18 | 0.12 | 88 | 1013.2 |
| 20260510150047 | 57 | 273 | 2.0 | 10.0 | 0.00 | 0.18 | 0.12 | 86 | 1013.1 |
| 20260510144558 | 58 | 239 | 3.0 | 9.0 | 0.00 | 0.20 | 0.12 | 85 | 1012.9 |
| 20260510143044 | 58 | 278 | 1.0 | 8.0 | 0.00 | 0.20 | 0.12 | 86 | 1012.6 |
| 20260510141542 | 58 | 261 | 3.0 | 8.0 | 0.00 | 0.20 | 0.12 | 87 | 1012.4 |
| 20260510140040 | 58 | 255 | 1.0 | 4.0 | 0.00 | 0.20 | 0.12 | 89 | 1012.3 |
| 20260510134547 | 58 | 300 | 1.0 | 5.0 | 0.00 | 0.23 | 0.12 | 88 | 1012.0 |
| 20260510133042 | 58 | 244 | 2.0 | 5.0 | 0.00 | 0.23 | 0.12 | 89 | 1011.8 |
| 20260510131540 | 58 | 202 | 3.0 | 5.0 | 0.00 | 0.23 | 0.12 | 90 | 1012.0 |
| 20260510130035 | 57 | 204 | 0.0 | 4.0 | 0.00 | 0.23 | 0.12 | 92 | 1011.9 |
| 20260510124530 | 55 | 203 | 1.0 | 4.0 | 0.00 | 0.26 | 0.12 | 93 | 1011.7 |
| 20260510123034 | 54 | 198 | 3.0 | 5.0 | 0.00 | 0.26 | 0.12 | 94 | 1011.8 |
| 20260510121526 | 54 | 163 | 1.0 | 4.0 | 0.00 | 0.26 | 0.12 | 95 | 1011.4 |
| 20260510120028 | 53 | 155 | 2.0 | 3.0 | 0.00 | 0.26 | 0.12 | 96 | 1011.3 |
| 20260510114525 | 52 | 163 | 0.0 | 3.0 | 0.00 | 0.27 | 0.12 | 96 | 1011.5 |
| 20260510113058 | 51 | 275 | 1.0 | 2.0 | 0.00 | 0.27 | 0.12 | 96 | 1011.3 |
| 20260510111553 | 51 | 275 | 0.0 | 2.0 | 0.00 | 0.27 | 0.12 | 96 | 1010.9 |
| 20260510110050 | 50 | 275 | 0.0 | 2.0 | 0.00 | 0.27 | 0.12 | 95 | 1010.8 |
| 20260510104554 | 50 | 161 | 0.0 | 2.0 | 0.00 | 0.28 | 0.12 | 95 | 1010.5 |
| 20260510103043 | 50 | 184 | 3.0 | 5.0 | 0.00 | 0.28 | 0.12 | 95 | 1010.2 |
| 20260510101542 | 49 | 265 | 0.0 | 2.0 | 0.00 | 0.28 | 0.12 | 95 | 1010.1 |
| 20260510100039 | 49 | 247 | 0.0 | 2.0 | 0.00 | 0.28 | 0.12 | 94 | 1009.9 |
| 20260510094547 | 49 | 247 | 0.0 | 3.0 | 0.00 | 0.28 | 0.12 | 94 | 1009.7 |
| 20260510093053 | 50 | 213 | 0.0 | 0.0 | 0.00 | 0.28 | 0.12 | 94 | 1009.6 |
| 20260510091543 | 50 | 190 | 0.0 | 5.0 | 0.00 | 0.28 | 0.12 | 95 | 1009.5 |
| 20260510090034 | 50 | 219 | 2.0 | 5.0 | 0.00 | 0.28 | 0.12 | 95 | 1009.4 |
| 20260510084533 | 50 | 189 | 1.0 | 4.0 | 0.00 | 0.28 | 0.12 | 95 | 1009.3 |
| 20260510083032 | 50 | 289 | 1.0 | 3.0 | 0.00 | 0.28 | 0.12 | 94 | 1009.3 |
| 20260510081530 | 51 | 229 | 0.0 | 2.0 | 0.00 | 0.28 | 0.12 | 93 | 1009.2 |
| 20260510080032 | 51 | 211 | 1.0 | 4.0 | 0.01 | 0.28 | 0.12 | 94 | 1009.2 |
| 20260510074527 | 51 | 198 | 0.0 | 2.0 | 0.04 | 0.28 | 0.12 | 93 | 1009.2 |
| 20260510073037 | 52 | 180 | 2.0 | 4.0 | 0.07 | 0.28 | 0.12 | 93 | 1009.3 |
| 20260510071525 | 52 | 184 | 2.0 | 5.0 | 0.07 | 0.28 | 0.12 | 93 | 1009.6 |
| 20260510070030 | 52 | 163 | 3.0 | 9.0 | 0.06 | 0.27 | 0.11 | 92 | 1009.6 |
| 20260510064523 | 51 | 255 | 6.0 | 11.0 | 0.02 | 0.24 | 0.07 | 94 | 1009.7 |
| 20260510063023 | 51 | 244 | 3.0 | 6.0 | 0.01 | 0.22 | 0.05 | 94 | 1009.6 |
| 20260510061521 | 51 | 257 | 1.0 | 2.0 | 0.01 | 0.22 | 0.05 | 93 | 1009.6 |
| 20260510060019 | 51 | 213 | 0.0 | 2.0 | 0.01 | 0.22 | 0.05 | 92 | 1009.3 |
| 20260510054516 | 51 | 213 | 0.0 | 2.0 | 0.03 | 0.22 | 0.05 | 92 | 1009.4 |
| 20260510053041 | 52 | 257 | 1.0 | 2.0 | 0.04 | 0.21 | 0.04 | 91 | 1009.6 |
| 20260510051512 | 52 | 295 | 1.0 | 4.0 | 0.04 | 0.21 | 0.04 | 90 | 1009.9 |
| 20260510050009 | 53 | 154 | 3.0 | 6.0 | 0.04 | 0.21 | 0.04 | 87 | 1009.7 |
| 20260510044505 | 54 | 159 | 2.0 | 4.0 | 0.02 | 0.19 | 0.02 | 84 | 1010.1 |
| 20260510043004 | 55 | 260 | 2.0 | 11.0 | 0.00 | 0.17 | 0.00 | 81 | 1010.4 |
| 20260510041501 | 55 | 286 | 3.0 | 7.0 | 0.00 | 0.17 | 0.00 | 80 | 1010.4 |
| 20260510040058 | 54 | 321 | 3.0 | 10.0 | 0.00 | 0.17 | 0.00 | 81 | 1010.3 |
| 20260510034559 | 53 | 323 | 2.0 | 10.0 | 0.00 | 0.17 | 0.17 | 87 | 1010.1 |
| 20260510033112 | 51 | 322 | 3.0 | 7.0 | 0.00 | 0.17 | 0.17 | 91 | 1010.0 |
| 20260510031557 | 50 | 256 | 0.0 | 2.0 | 0.00 | 0.17 | 0.17 | 95 | 1009.1 |
| 20260510030058 | 48 | 38 | 0.0 | 2.0 | 0.00 | 0.17 | 0.17 | 93 | 1008.8 |
| 20260510024601 | 49 | 198 | 0.0 | 0.0 | 0.00 | 0.17 | 0.17 | 92 | 1008.5 |
| 20260510023055 | 49 | 198 | 0.0 | 0.0 | 0.00 | 0.17 | 0.17 | 91 | 1008.2 |
| 20260510021557 | 50 | 198 | 0.0 | 2.0 | 0.00 | 0.17 | 0.17 | 92 | 1007.9 |
| 20260510020057 | 50 | 198 | 0.0 | 1.0 | 0.00 | 0.17 | 0.17 | 92 | 1007.9 |
| 20260510014554 | 50 | 198 | 0.0 | 0.0 | 0.00 | 0.17 | 0.17 | 91 | 1008.0 |
| 20260510013154 | 51 | 198 | 0.0 | 2.0 | 0.00 | 0.17 | 0.17 | 89 | 1008.0 |
| 20260510011554 | 52 | 198 | 0.0 | 0.0 | 0.00 | 0.17 | 0.17 | 87 | 1007.9 |
| 20260510010052 | 54 | 198 | 0.0 | 2.0 | 0.00 | 0.17 | 0.17 | 84 | 1007.4 |
| 20260510004553 | 56 | 198 | 0.0 | 3.0 | 0.00 | 0.17 | 0.17 | 81 | 1007.2 |
| 20260510003052 | 57 | 214 | 1.0 | 5.0 | 0.00 | 0.17 | 0.17 | 79 | 1007.3 |
| 20260510001551 | 58 | 187 | 1.0 | 5.0 | 0.00 | 0.17 | 0.17 | 77 | 1007.2 |
| 20260510000057 | 59 | 230 | 2.0 | 6.0 | 0.00 | 0.17 | 0.17 | 75 | 1007.2 |
| 20260509234549 | 60 | 201 | 2.0 | 6.0 | 0.00 | 0.17 | 0.17 | 74 | 1006.9 |
| 20260509233049 | 61 | 214 | 4.0 | 11.0 | 0.00 | 0.17 | 0.17 | 72 | 1006.6 |
| 20260509231549 | 63 | 277 | 5.0 | 11.0 | 0.00 | 0.17 | 0.17 | 64 | 1006.5 |
| 20260509230050 | 64 | 200 | 5.0 | 11.0 | 0.00 | 0.17 | 0.17 | 64 | 1006.3 |
| 20260509224546 | 64 | 216 | 3.0 | 10.0 | 0.00 | 0.17 | 0.17 | 65 | 1006.4 |
| 20260509223042 | 62 | 205 | 4.0 | 10.0 | 0.00 | 0.17 | 0.17 | 68 | 1006.7 |
| 20260509221541 | 62 | 211 | 7.0 | 10.0 | 0.00 | 0.17 | 0.17 | 68 | 1006.9 |
| 20260509220040 | 63 | 244 | 3.0 | 9.0 | 0.00 | 0.17 | 0.17 | 70 | 1006.9 |
| 20260509214552 | 62 | 232 | 5.0 | 11.0 | 0.00 | 0.17 | 0.17 | 70 | 1006.7 |
| 20260509213037 | 62 | 221 | 6.0 | 11.0 | 0.00 | 0.17 | 0.17 | 71 | 1006.7 |
| 20260509211559 | 62 | 223 | 7.0 | 13.0 | 0.00 | 0.17 | 0.17 | 72 | 1006.8 |
| 20260509210106 | 61 | 213 | 6.0 | 15.0 | 0.00 | 0.17 | 0.17 | 74 | 1007.0 |
| 20260509204554 | 61 | 186 | 5.0 | 12.0 | 0.00 | 0.17 | 0.17 | 76 | 1007.0 |
| 20260509203100 | 61 | 194 | 7.0 | 15.0 | 0.00 | 0.17 | 0.17 | 78 | 1007.2 |
| 20260509201548 | 59 | 184 | 5.0 | 10.0 | 0.00 | 0.17 | 0.17 | 81 | 1007.5 |
| 20260509200046 | 58 | 242 | 3.0 | 10.0 | 0.00 | 0.17 | 0.17 | 83 | 1007.6 |
| 20260509194549 | 59 | 236 | 6.0 | 16.0 | 0.00 | 0.17 | 0.17 | 84 | 1007.9 |
| 20260509193041 | 58 | 219 | 8.0 | 13.0 | 0.00 | 0.17 | 0.17 | 86 | 1008.2 |